Miscellaneous Local Product
Issued by NWS North Platte, NE

Home | Current Version | Previous Version | Text Only | Print | Product List | Glossary On
Versions: 1 2 3 4 5 6 7 8 9 10 11 12 13 14 15 16 17 18 19 20 21 22 23 24 25 26 27 28 29 30 31 32 33 34 35 36 37 38 39 40 41 42 43 44 45 46 47 48 49 50
000
AXUS43 KLBF 311010
MISLBF


WESTERN AND NORTH CENTRAL NEBRASKA HOURLY WEATHER ROUNDUP
NATIONAL WEATHER SERVICE NORTH PLATTE NE
500 AM CDT TUE MAY 31 2016

NOTE: "FAIR" INDICATES FEW OR NO CLOUDS BELOW 12,000 FEET WITH NO
SIGNIFICANT WEATHER AND/OR OBSTRUCTIONS TO VISIBILITY.

NOTE: STATIONS NOT REPORTING VARIABLES SUCH AS SKY/WEATHER OR
PRESSURE ARE PROVIDED BY RAWS AND APRS NETWORKS AND ARE NOT UNDER
NATIONAL WEATHER SERVICE QUALITY CONTROL.

...OBSERVATIONS IN AND NEAR THE EASTERN PANHANDLE OF NEBRASKA...

CITY           SKY/WX    TMP DP  RH WIND       PRES   REMARKS
PINE RIDGE     CLOUDY    45  41  86 CALM      30.05S
CHADRON        CLOUDY    48  43  82 SW7       30.06S
ALLIANCE       CLOUDY    50  45  83 NW7       30.05F
SIDNEY         CLEAR     48  46  93 NW9       30.09R
CRESCENT LAKE    N/A     49  45  86 N8G18       N/A
BIG SPRINGS      N/A     55  51  85 CALM        N/A
$$

...OBSERVATIONS IN NORTHERN NEBRASKA AND FAR SOUTHERN SOUTH DAKOTA...

CITY           SKY/WX    TMP DP  RH WIND       PRES   REMARKS
WINNER         FAIR      53  47  79 W9        29.96S
VALENTINE      CLEAR     47  44  90 SW8       30.00S
THEDFORD       PTCLDY    50  47  89 NW6       30.03S
AINSWORTH      CLEAR     51  47  84 NW6       29.99S
O`NEILL        MOCLDY    57  51  80 NW13G21   29.96R
ORD            CLOUDY    58  54  86 NW13      29.95R
BROKEN BOW     MOCLDY    56  51  84 N13       29.99R
BUTTE            N/A     53  49  85 W13G20      N/A
CHAMBERS         N/A     56  51  84 MISG        N/A
EWING            N/A     59  55  87 NW10G18     N/A
$$

...OBSERVATIONS IN SOUTHWEST NEBRASKA AND FAR NORTHEAST COLORADO...

CITY           SKY/WX    TMP DP  RH WIND       PRES   REMARKS
WRAY           FAIR      54  50  87 N15       30.03R
IMPERIAL       CLEAR     54  50  86 N10       30.02S
OGALLALA       CLEAR     52  44  73 N12       30.04S
NORTH PLATTE   CLOUDY    51  47  86 NW7       30.04R
MCCOOK         CLOUDY    55  51  86 N7        29.98S
LEXINGTON      CLOUDY    56  53  89 N7        29.99R
PAXTON           N/A     57  51  79 CALM        N/A
STAPLETON        N/A     52  47  84 CALM        N/A
GOTHENBURG       N/A     58  50  76 NW6         N/A
CALLAWAY         N/A     55  52  89 N12         N/A
$$

...OBSERVATIONS IN CENTRAL LINCOLN COUNTY AREA...

CITY           SKY/WX    TMP DP  RH WIND       PRES   REMARKS
N.P. AIRPORT   CLOUDY    51  47  86 NW7       30.04R
N.P. DOWNTOWN    N/A     54  47  78 NW3         N/A
N.P. SOUTHEAST   N/A     54  47  77 N3          N/A
N.P. HILLCREST   N/A     53  47  82 NW6         N/A
$$

...SOME OBSERVATIONS FROM AROUND THE REGION...

CITY           SKY/WX    TMP DP  RH WIND       PRES   REMARKS
DENVER         CLOUDY    49  43  80 NW10      30.17R
LARAMIE        CLOUDY    42  34  73 SE7       30.16F
CHEYENNE       CLOUDY    45  38  76 N10       30.15S
SCOTTSBLUFF    CLOUDY    50  42  74 NW6       30.08F
RAPID CITY     CLOUDY    46  32  58 W3        30.00F
BISMARCK       PTCLDY    52  49  89 W13       29.78S
PIERRE         CLEAR     50  46  86 W14       29.91S
SIOUX FALLS    LGT RAIN  62  59  90 W9        29.84R
OMAHA          MOCLDY    67  62  84 SE7       29.86S
GRAND ISLAND   CLOUDY    61  59  93 CALM      29.94R
KANSAS CITY    CLOUDY    62  59  90 CALM      29.94S
WICHITA        CLOUDY    66  63  90 N10       29.94R THUNDER
OKLAHOMA CITY  MOCLDY    67  66  97 SE7       29.88F
DALLAS         CLOUDY    74  67  78 S8        29.85F
AMARILLO       PTCLDY    61  52  72 SW18      29.92F
DODGE CITY     CLOUDY    57  55  93 S5        29.94R
HAYS           CLOUDY    59  52  77 NE12      29.91R
GOODLAND       CLEAR     49  47  93 CALM      30.02R
$$




USA.gov is the U.S. government's official web portal to all federal, state and local government web resources and services.